SCP
0 0 0 0 0 0 0 0 0 0 0 0 0 0 0 0 0 0 0 0 0 0 0 0 0 0 0 0 0 0 0 0 0 0 0 0 0 0 0 0 0 0 0
0 0 0 0 0 0 0 0 0 0 0 0 0 0 0 0 0 0 0 0 0 0 0 0 0 0 0 0 0 0 0 0 0 0 0 0 0 0 0 0 0 0 0
0 0 0 0 0 0 0 0 0 0 0 0 0 0 0 0 0 0 0 0 0 0 0 0 0 0 0 0 0 0 0 0 0 0 0 0 0 0 0 0 0 0 0
0 0 0 0 0 0 0 0 0 0 0 0 0 0 0 0 0 0 0 0 0 0 0 0 0 0 0 0 0 0 0 0 0 0 0 0 0 0 0 -0 0 0 0
0 0 0 0 0 0 0 0 0 0 0 0 0 0 0 0 0 0 0 0 0 0 0 0 0 0 0 0 0 0 0 0 0 0 0 0 0 0 0 0 0 0 0
0 0 0 0 0 0 0 0 0 0 0 0 0 0 0 0 0 0 0 0 0 0 0 0 0 0 0 0 0 0 0 0 0 0 0 0 0 0 0 0 0 0 0
0 0 0 0 0 0 0 0 0 0 0 0 0 0 0 0 0 0 0 0 0 0 0 0 0 0 0 0 0 0 0 0 0 0 0 0 0 0 0 0 0 0 0
0 0 0 0 0 0 0 0 0 0 0 0 0 0 0 0 0 0 0 0 0 0 0 0 0 0 0 0 0 0 0 0 0 0 0 0 0 0 0 0 0 0 0
0 0 0 0 0 0 0 0 0 0 0 0 0 0 0 0 0 0 0 0 0 0 0 0 0 0 0 0 0 0 0 0 0 0 0 0 0 0 0 0 0 0 0
0 0 0 0 0 0 0 0 0 0 0 0 0 0 0 0 0 0 0 0 0 0 0 0 0 0 0 0 0 0 0 0 0 0 0 0 0 0 0 0 0 0 0
0 0 0 0 0 0 0 0 0 0 0 0 0 0 0 0 0 0 0 0 0 0 0 0 0 0 0 0 0 0 0 0 0 0 0 0 0 0 0 0 0 0 0
0 0 0 0 0 0 0 0 0 0 0 0 0 0 0 0 0 0 0 0 0 0 0 0 0 0 0 0 0 0 0 0 0 0 0 0 0 0 0 0 0 0 0
0 0 0 0 0 0 0 0 0 0 0 0 0 0 0 0 0 0 0 0 0 0 0 0 0 0 0 0 0 0 0 0 0 0 0 0 0 0 0 0 0 0 0
0 0 0 0 0 0 0 0 0 0 0 0 0 0 0 0 0 0 0 0 0 0 0 0 0 0 0 0 0 0 0 0 0 0 0 0 0 0 0 0 0 0 0
0 0 0 0 0 0 0 0 0 0 0 0 0 0 0 0 0 0 0 0 0 0 0 0 0 0 0 0 0 0 0 0 0 0 0 0 0 0 0 0 0 0 0
0 0 0 0 0 0 0 0 0 0 0 0 0 0 0 0 0 0 0 0 0 0 0 0 0 0 0 0 0 0 0 0 0 0 0 0 0 0 0 0 0 0 0
0 0 0 0 0 0 0 0 0 -0 -0 0 0 0 0 0 0 0 0 0 0 0 0 0 0 0 0 0 0 0 0 0 0 0 0 0 0 0 0 0 0 0 0
-0 -0 0 -0 0 0 -0 0 0 0 0 0 0 0 0 0 0 0 0 0 0 0 0 0 0 0 0 0 0 0 0 0 0 0 0 0 0 0 0 0 0 0 0
-0 -0 -0 -0 -0 0 0 0 0 0 0 0 0 0 0 0 0 0 0 0 0 0 -0 -0 -0 -0 -0 -0 0 0 -0 -0 -0 0 0 -0 0 0 0 0 0 0 0
-0 0 0 0 0 0 0 0 0 0 0 0 0 0 0 0 0 0 -0 -0 -0 -0 -0 -0 -0 -0 -0 0 -0 -0 -0 -0 -0 -0 -0 0 0 0 0 0 -0 -0 -0
-0 0 0 -0 0 0 0 0 0 0 0 0 0 0 0 0 0 0 -0 -0 -0 -0 -0 -0 -0 -0 -0 -0 -0 -0 -0 -0 -0 -0 0 0 0 -0 -0 -0 -0 -0 -0
-0 -0 -0 -0 -0 0 -0 -0 0 0 0 0 0 -0 -0 0 0 0 0 0 0 0 0 0 0 0 0 0 0 0 0 0 -0 -0 0 0 -0 0 0 0 -0 -0 0
-0 -0 -0 0 0 0 -0 0 0 0 0 0 0 0 0 0 0 0 0 0 0 0 0 0 0 0 0 0 0 0 0 0 0 0 0 0 0 0 0 0 0 0 0
-0 0 0 0 0 0 0 0 0 0 0 0 0 0 0 0 0 0 0 0 0 0 0 0 0 0 0 0 0 0 0 0 0 0 0 0 0 0 0 0 0 0 -0
0 0 0 0 0 0 0 0 0 0 0 0 0 0 0 0 0 0 0 0 0 0 0 0 0 0 0 0 0 0 0 0 0 0 0 0 0 0 0 0 0 0 0
0 0 0 0 0 0 0 0 0 0 0 0 0 0 0 0 0 0 0 0 0 0 0 0 0 0 0 0 0 0 0 0 0 0 0 0 0 0 0 0 0 0 0
Wind_Speed_500mb
72 64 57 56 56 54 49 47 42 39 36 36 33 32 28 33 36 32 32 33 28 31 27 26 29 28 25 25 24 27 29 29 31 29 26 25 28 30 32 30 30 30 30
77 71 61 60 56 54 49 43 42 39 36 39 39 31 33 38 37 35 30 29 30 32 32 32 33 39 40 41 42 46 48 49 50 48 40 38 38 31 34 39 37 38 38
76 71 65 58 58 55 49 47 48 46 44 43 41 38 33 38 41 44 41 37 37 37 36 36 37 40 42 43 45 50 55 53 55 55 46 44 46 44 40 40 43 39 41
74 65 65 60 49 52 58 52 49 48 48 47 41 38 42 41 44 43 44 47 38 44 40 39 42 44 46 49 52 54 53 49 63 58 61 59 57 57 54 49 50 52 54
73 66 61 62 51 46 59 50 50 48 43 43 41 38 37 37 41 43 49 50 50 46 46 46 46 46 48 51 54 57 60 61 60 62 73 63 65 62 57 56 61 61 61
76 62 55 56 52 47 56 55 47 48 44 38 42 36 34 33 36 39 42 44 46 44 44 49 52 52 51 54 56 59 62 64 61 63 63 69 68 63 62 62 63 65 62
76 56 49 48 48 42 49 52 52 46 51 39 36 33 33 34 39 43 45 46 44 45 47 50 51 53 54 56 58 61 64 66 60 56 58 58 64 76 76 63 61 66 73
54 53 39 35 34 43 45 48 47 51 53 46 46 40 34 33 35 36 36 40 49 51 50 50 55 57 61 62 63 65 68 69 71 74 76 75 71 63 58 61 70 60 59
50 43 44 44 35 42 44 45 45 49 50 55 43 38 16 19 22 19 22 31 38 42 56 62 65 65 62 62 64 65 67 72 71 70 74 77 82 88 89 93 91 92 95
49 35 31 32 30 31 37 38 39 44 44 42 44 51 46 52 47 34 33 32 38 44 48 50 55 57 52 54 56 59 59 58 64 66 69 73 78 81 83 85 87 86 86
51 47 34 32 24 31 30 34 40 32 36 35 38 41 41 41 49 52 42 37 34 34 36 40 40 40 41 40 42 44 48 51 54 58 61 64 66 69 72 74 68 68 71
57 43 48 44 36 36 38 35 30 33 36 39 41 45 41 36 30 19 14 23 24 25 22 27 29 30 31 37 42 49 52 55 59 60 64 68 72 73 72 72 74 73 68
45 50 55 46 41 41 40 39 35 37 36 37 28 24 18 11 3 10 13 15 11 16 16 21 23 27 30 35 40 44 48 52 53 54 57 60 64 66 70 72 73 71 65
39 44 55 53 45 48 52 46 40 35 26 21 11 20 18 21 15 14 13 14 7 12 13 18 23 29 37 40 44 47 50 52 55 57 61 65 68 71 75 78 79 80 80
58 51 40 44 49 38 39 41 42 46 41 39 37 31 27 25 21 21 22 22 24 14 15 16 36 39 44 47 51 52 57 59 61 63 65 70 74 77 79 81 80 81 75
73 67 57 52 56 58 53 50 53 49 46 49 44 38 41 40 34 30 28 27 26 25 19 32 37 45 49 51 55 58 61 65 65 68 73 76 78 81 81 81 83 82 78
81 80 76 71 68 65 62 60 56 53 51 52 49 44 43 37 35 33 32 31 32 33 34 41 46 52 56 61 63 65 67 70 74 75 78 80 81 84 85 86 80 74 69
80 78 78 74 71 68 67 65 63 59 55 53 49 42 43 39 38 39 39 40 40 40 43 54 57 62 65 66 74 74 80 81 87 91 91 91 97 95 74 63 72 73 73
88 86 85 82 78 73 67 64 59 56 53 50 47 47 47 46 46 47 46 47 48 48 51 58 68 70 72 76 85 89 92 102 100 97 103 103 68 65 74 79 89 99 98
85 80 79 79 74 70 64 58 55 53 51 50 49 49 49 50 51 53 56 59 62 63 64 67 74 78 78 81 93 106 118 112 113 110 96 90 86 103 108 108 98 84 82
81 77 74 73 68 65 60 54 51 51 51 51 49 49 51 53 54 58 60 61 62 66 70 75 77 78 78 93 98 103 104 106 106 67 108 115 108 110 110 106 102 99 82
75 71 70 64 63 63 54 51 49 49 48 48 52 55 57 57 59 61 62 63 60 62 67 69 73 79 88 90 91 91 88 98 97 92 109 113 106 110 107 109 107 90 88
64 66 62 58 61 56 48 47 47 49 51 54 55 57 58 61 63 65 64 63 64 62 57 56 67 73 77 73 71 79 78 80 95 103 103 112 113 120 119 121 114 97 101
60 57 56 56 53 51 47 46 48 48 51 55 58 60 61 61 62 64 66 66 66 64 58 59 60 62 58 55 56 60 69 84 96 106 81 93 122 118 127 129 124 111 102
53 50 51 46 45 48 45 44 44 49 50 54 57 58 60 62 67 65 72 72 67 65 63 60 56 55 55 55 55 62 76 89 107 122 102 85 110 118 138 134 116 113 115
45 43 44 45 43 43 40 47 50 49 56 58 59 57 63 70 67 65 71 69 68 65 68 67 61 57 59 60 60 66 78 90 99 120 100 103 116 90 95 100 112 125 125
Wind_Direction_500mb
205 205 205 206 200 195 194 204 207 211 213 200 217 226 220 214 221 224 242 245 253 254 246 248 264 283 283 277 281 282 283 285 287 284 290 294 298 293 289 284 280 276 274
207 207 205 205 206 199 200 202 208 212 209 215 217 226 225 222 223 211 232 240 247 251 245 239 244 255 272 283 288 285 289 293 285 285 287 296 298 297 299 293 289 285 281
207 210 207 208 208 202 200 205 211 214 218 216 216 218 232 230 231 226 229 243 249 250 247 248 248 247 250 256 262 264 267 275 277 281 279 283 287 291 293 292 290 287 288
208 213 212 209 211 200 201 209 214 219 214 219 226 223 224 228 231 234 236 238 242 254 256 257 257 257 259 262 265 266 265 270 265 264 275 278 284 289 294 293 290 291 293
215 218 217 209 205 202 207 214 211 220 211 207 226 227 233 235 235 233 235 242 248 258 264 269 272 270 268 268 269 271 272 271 266 269 268 267 280 283 281 284 291 293 293
203 217 218 213 204 208 213 219 219 222 227 233 237 237 238 243 246 246 255 257 258 266 273 279 280 278 274 270 268 268 269 271 272 266 269 268 273 267 275 281 280 279 278
218 204 209 212 210 220 224 222 229 224 234 231 235 236 242 236 246 257 267 273 275 274 275 275 274 272 272 272 269 265 262 262 258 257 260 264 264 265 263 265 269 271 274
200 212 200 200 221 230 229 226 231 229 235 231 226 241 256 268 274 282 281 279 272 271 270 269 269 267 266 266 266 267 266 264 262 259 257 253 253 257 256 261 260 259 260
207 197 216 206 206 228 238 240 232 236 234 244 251 243 249 248 271 286 275 262 263 261 258 258 265 268 268 267 266 266 267 269 268 268 268 267 266 265 267 271 271 269 268
203 198 200 199 205 232 234 242 249 243 241 248 249 251 254 258 271 282 269 254 262 257 259 255 257 259 267 267 270 276 277 275 276 276 273 272 273 275 276 276 275 276 274
220 210 201 192 209 226 235 239 235 237 237 242 242 253 250 249 260 266 271 254 255 267 274 290 290 288 288 290 287 287 288 290 290 291 291 288 285 283 281 280 283 283 283
210 200 201 199 197 220 218 219 224 230 234 240 245 252 256 258 250 245 269 273 293 287 290 294 296 297 298 298 298 294 294 293 292 293 295 294 292 291 290 288 285 280 279
204 207 211 203 210 223 233 228 228 227 231 224 245 235 229 232 268 277 265 288 300 297 310 306 308 310 309 309 307 307 308 307 306 304 300 298 297 295 293 291 288 286 287
166 167 173 185 211 223 214 219 202 218 216 215 137 110 93 85 62 65 47 9 332 332 324 325 334 325 322 323 319 316 312 310 308 307 306 303 302 300 298 295 293 292 291
116 121 132 128 119 120 113 115 106 107 112 105 100 93 86 78 79 62 46 35 33 6 350 326 332 324 324 321 316 316 312 308 308 306 303 302 300 299 297 297 296 295 295
113 111 106 107 110 108 110 107 104 102 99 90 84 78 67 62 58 55 47 35 24 12 354 326 327 324 321 317 314 312 308 307 306 305 306 304 302 300 300 299 299 299 299
110 106 108 108 102 98 97 94 89 82 78 79 79 73 70 61 52 43 32 22 10 359 343 330 328 326 322 320 317 313 312 308 307 306 304 303 302 300 301 302 304 306 301
100 101 101 98 92 87 87 87 88 85 80 75 70 64 61 52 42 32 22 12 4 355 339 334 331 328 326 324 318 316 316 315 316 316 315 313 310 312 312 307 305 302 297
97 96 96 94 91 88 85 81 79 76 71 65 59 51 43 33 26 17 9 2 356 349 343 336 333 330 328 326 318 320 321 319 320 318 318 319 319 314 309 307 302 300 300
101 99 96 92 86 81 77 74 70 67 63 57 49 42 33 24 17 8 3 359 352 347 342 336 333 330 330 325 324 324 321 321 320 321 323 322 317 313 312 315 316 309 303
95 94 92 90 87 82 74 69 64 62 56 49 41 33 27 19 11 6 1 356 350 344 341 338 331 330 329 326 328 325 323 323 323 330 326 318 323 323 324 322 318 317 307
97 92 86 85 81 76 70 63 58 53 48 43 34 25 17 8 1 358 355 352 346 342 337 333 327 325 324 324 324 327 324 325 324 324 325 321 325 324 322 320 319 307 304
94 89 86 82 78 72 65 58 51 46 40 34 26 15 8 2 355 351 346 342 337 336 332 327 324 325 326 331 329 322 321 319 317 322 325 320 327 320 321 319 317 308 304
88 85 82 77 74 70 62 53 45 40 34 25 17 9 1 354 348 345 341 342 338 336 336 334 332 329 329 325 318 319 317 318 320 324 321 309 325 318 319 314 315 316 314
85 81 76 75 70 66 57 49 41 34 26 20 11 2 355 352 351 350 342 343 341 340 335 337 335 331 330 330 331 326 329 327 324 322 324 317 316 315 318 315 317 319 317
85 81 73 64 60 55 48 38 31 25 19 12 6 358 356 354 348 345 341 340 336 334 335 335 333 333 334 334 334 332 332 327 324 318 321 316 316 313 310 304 309 319 318
Wind_Speed_850mb
72 64 57 56 56 54 49 47 42 39 36 36 33 32 28 33 36 32 32 33 28 31 27 26 29 28 25 25 24 27 29 29 31 29 26 25 28 30 32 30 30 30 30
77 71 61 60 56 54 49 43 42 39 36 39 39 31 33 38 37 35 30 29 30 32 32 32 33 39 40 41 42 46 48 49 50 48 40 38 38 31 34 39 37 38 38
76 71 65 58 58 55 49 47 48 46 44 43 41 38 33 38 41 44 41 37 37 37 36 36 37 40 42 43 45 50 55 53 55 55 46 44 46 44 40 40 43 39 41
74 65 65 60 49 52 58 52 49 48 48 47 41 38 42 41 44 43 44 47 38 44 40 39 42 44 46 49 52 54 53 49 63 58 61 59 57 57 54 49 50 52 54
73 66 61 62 51 46 59 50 50 48 43 43 41 38 37 37 41 43 49 50 50 46 46 46 46 46 48 51 54 57 60 61 60 62 73 63 65 62 57 56 61 61 61
76 62 55 56 52 47 56 55 47 48 44 38 42 36 34 33 36 39 42 44 46 44 44 49 52 52 51 54 56 59 62 64 61 63 63 69 68 63 62 62 63 65 62
76 56 49 48 48 42 49 52 52 46 51 39 36 33 33 34 39 43 45 46 44 45 47 50 51 53 54 56 58 61 64 66 60 56 58 58 64 76 76 63 61 66 73
54 53 39 35 34 43 45 48 47 51 53 46 46 40 34 33 35 36 36 40 49 51 50 50 55 57 61 62 63 65 68 69 71 74 76 75 71 63 58 61 70 60 59
50 43 44 44 35 42 44 45 45 49 50 55 43 38 16 19 22 19 22 31 38 42 56 62 65 65 62 62 64 65 67 72 71 70 74 77 82 88 89 93 91 92 95
49 35 31 32 30 31 37 38 39 44 44 42 44 51 46 52 47 34 33 32 38 44 48 50 55 57 52 54 56 59 59 58 64 66 69 73 78 81 83 85 87 86 86
51 47 34 32 24 31 30 34 40 32 36 35 38 41 41 41 49 52 42 37 34 34 36 40 40 40 41 40 42 44 48 51 54 58 61 64 66 69 72 74 68 68 71
57 43 48 44 36 36 38 35 30 33 36 39 41 45 41 36 30 19 14 23 24 25 22 27 29 30 31 37 42 49 52 55 59 60 64 68 72 73 72 72 74 73 68
45 50 55 46 41 41 40 39 35 37 36 37 28 24 18 11 3 10 13 15 11 16 16 21 23 27 30 35 40 44 48 52 53 54 57 60 64 66 70 72 73 71 65
39 44 55 53 45 48 52 46 40 35 26 21 11 20 18 21 15 14 13 14 7 12 13 18 23 29 37 40 44 47 50 52 55 57 61 65 68 71 75 78 79 80 80
58 51 40 44 49 38 39 41 42 46 41 39 37 31 27 25 21 21 22 22 24 14 15 16 36 39 44 47 51 52 57 59 61 63 65 70 74 77 79 81 80 81 75
73 67 57 52 56 58 53 50 53 49 46 49 44 38 41 40 34 30 28 27 26 25 19 32 37 45 49 51 55 58 61 65 65 68 73 76 78 81 81 81 83 82 78
81 80 76 71 68 65 62 60 56 53 51 52 49 44 43 37 35 33 32 31 32 33 34 41 46 52 56 61 63 65 67 70 74 75 78 80 81 84 85 86 80 74 69
80 78 78 74 71 68 67 65 63 59 55 53 49 42 43 39 38 39 39 40 40 40 43 54 57 62 65 66 74 74 80 81 87 91 91 91 97 95 74 63 72 73 73
88 86 85 82 78 73 67 64 59 56 53 50 47 47 47 46 46 47 46 47 48 48 51 58 68 70 72 76 85 89 92 102 100 97 103 103 68 65 74 79 89 99 98
85 80 79 79 74 70 64 58 55 53 51 50 49 49 49 50 51 53 56 59 62 63 64 67 74 78 78 81 93 106 118 112 113 110 96 90 86 103 108 108 98 84 82
81 77 74 73 68 65 60 54 51 51 51 51 49 49 51 53 54 58 60 61 62 66 70 75 77 78 78 93 98 103 104 106 106 67 108 115 108 110 110 106 102 99 82
75 71 70 64 63 63 54 51 49 49 48 48 52 55 57 57 59 61 62 63 60 62 67 69 73 79 88 90 91 91 88 98 97 92 109 113 106 110 107 109 107 90 88
64 66 62 58 61 56 48 47 47 49 51 54 55 57 58 61 63 65 64 63 64 62 57 56 67 73 77 73 71 79 78 80 95 103 103 112 113 120 119 121 114 97 101
60 57 56 56 53 51 47 46 48 48 51 55 58 60 61 61 62 64 66 66 66 64 58 59 60 62 58 55 56 60 69 84 96 106 81 93 122 118 127 129 124 111 102
53 50 51 46 45 48 45 44 44 49 50 54 57 58 60 62 67 65 72 72 67 65 63 60 56 55 55 55 55 62 76 89 107 122 102 85 110 118 138 134 116 113 115
45 43 44 45 43 43 40 47 50 49 56 58 59 57 63 70 67 65 71 69 68 65 68 67 61 57 59 60 60 66 78 90 99 120 100 103 116 90 95 100 112 125 125
Wind_Direction_850mb
205 205 205 206 200 195 194 204 207 211 213 200 217 226 220 214 221 224 242 245 253 254 246 248 264 283 283 277 281 282 283 285 287 284 290 294 298 293 289 284 280 276 274
207 207 205 205 206 199 200 202 208 212 209 215 217 226 225 222 223 211 232 240 247 251 245 239 244 255 272 283 288 285 289 293 285 285 287 296 298 297 299 293 289 285 281
207 210 207 208 208 202 200 205 211 214 218 216 216 218 232 230 231 226 229 243 249 250 247 248 248 247 250 256 262 264 267 275 277 281 279 283 287 291 293 292 290 287 288
208 213 212 209 211 200 201 209 214 219 214 219 226 223 224 228 231 234 236 238 242 254 256 257 257 257 259 262 265 266 265 270 265 264 275 278 284 289 294 293 290 291 293
215 218 217 209 205 202 207 214 211 220 211 207 226 227 233 235 235 233 235 242 248 258 264 269 272 270 268 268 269 271 272 271 266 269 268 267 280 283 281 284 291 293 293
203 217 218 213 204 208 213 219 219 222 227 233 237 237 238 243 246 246 255 257 258 266 273 279 280 278 274 270 268 268 269 271 272 266 269 268 273 267 275 281 280 279 278
218 204 209 212 210 220 224 222 229 224 234 231 235 236 242 236 246 257 267 273 275 274 275 275 274 272 272 272 269 265 262 262 258 257 260 264 264 265 263 265 269 271 274
200 212 200 200 221 230 229 226 231 229 235 231 226 241 256 268 274 282 281 279 272 271 270 269 269 267 266 266 266 267 266 264 262 259 257 253 253 257 256 261 260 259 260
207 197 216 206 206 228 238 240 232 236 234 244 251 243 249 248 271 286 275 262 263 261 258 258 265 268 268 267 266 266 267 269 268 268 268 267 266 265 267 271 271 269 268
203 198 200 199 205 232 234 242 249 243 241 248 249 251 254 258 271 282 269 254 262 257 259 255 257 259 267 267 270 276 277 275 276 276 273 272 273 275 276 276 275 276 274
220 210 201 192 209 226 235 239 235 237 237 242 242 253 250 249 260 266 271 254 255 267 274 290 290 288 288 290 287 287 288 290 290 291 291 288 285 283 281 280 283 283 283
210 200 201 199 197 220 218 219 224 230 234 240 245 252 256 258 250 245 269 273 293 287 290 294 296 297 298 298 298 294 294 293 292 293 295 294 292 291 290 288 285 280 279
204 207 211 203 210 223 233 228 228 227 231 224 245 235 229 232 268 277 265 288 300 297 310 306 308 310 309 309 307 307 308 307 306 304 300 298 297 295 293 291 288 286 287
166 167 173 185 211 223 214 219 202 218 216 215 137 110 93 85 62 65 47 9 332 332 324 325 334 325 322 323 319 316 312 310 308 307 306 303 302 300 298 295 293 292 291
116 121 132 128 119 120 113 115 106 107 112 105 100 93 86 78 79 62 46 35 33 6 350 326 332 324 324 321 316 316 312 308 308 306 303 302 300 299 297 297 296 295 295
113 111 106 107 110 108 110 107 104 102 99 90 84 78 67 62 58 55 47 35 24 12 354 326 327 324 321 317 314 312 308 307 306 305 306 304 302 300 300 299 299 299 299
110 106 108 108 102 98 97 94 89 82 78 79 79 73 70 61 52 43 32 22 10 359 343 330 328 326 322 320 317 313 312 308 307 306 304 303 302 300 301 302 304 306 301
100 101 101 98 92 87 87 87 88 85 80 75 70 64 61 52 42 32 22 12 4 355 339 334 331 328 326 324 318 316 316 315 316 316 315 313 310 312 312 307 305 302 297
97 96 96 94 91 88 85 81 79 76 71 65 59 51 43 33 26 17 9 2 356 349 343 336 333 330 328 326 318 320 321 319 320 318 318 319 319 314 309 307 302 300 300
101 99 96 92 86 81 77 74 70 67 63 57 49 42 33 24 17 8 3 359 352 347 342 336 333 330 330 325 324 324 321 321 320 321 323 322 317 313 312 315 316 309 303
95 94 92 90 87 82 74 69 64 62 56 49 41 33 27 19 11 6 1 356 350 344 341 338 331 330 329 326 328 325 323 323 323 330 326 318 323 323 324 322 318 317 307
97 92 86 85 81 76 70 63 58 53 48 43 34 25 17 8 1 358 355 352 346 342 337 333 327 325 324 324 324 327 324 325 324 324 325 321 325 324 322 320 319 307 304
94 89 86 82 78 72 65 58 51 46 40 34 26 15 8 2 355 351 346 342 337 336 332 327 324 325 326 331 329 322 321 319 317 322 325 320 327 320 321 319 317 308 304
88 85 82 77 74 70 62 53 45 40 34 25 17 9 1 354 348 345 341 342 338 336 336 334 332 329 329 325 318 319 317 318 320 324 321 309 325 318 319 314 315 316 314
85 81 76 75 70 66 57 49 41 34 26 20 11 2 355 352 351 350 342 343 341 340 335 337 335 331 330 330 331 326 329 327 324 322 324 317 316 315 318 315 317 319 317
85 81 73 64 60 55 48 38 31 25 19 12 6 358 356 354 348 345 341 340 336 334 335 335 333 333 334 334 334 332 332 327 324 318 321 316 316 313 310 304 309 319 318